Station 51001 (LLNR 28006) - NORTHWESTERN HAWAII ONE - 188 NM NW of Kauai Island, HI Image indicating link to RSS feed of recent meteorological observations for station 51001


Conditions at 51001 as of
(9:10 pm HAST on 06/20/2024)
0710 GMT on 06/21/2024:
     

Click on the graph icon in the table below to see a time series plot of the last five days of that observation.

5-day plot - Wind Direction Wind Direction (WDIR):ENE ( 70 deg true )
5-day plot - Wind Speed Wind Speed (WSPD): 17.5 kts
5-day plot - Wind Gust Wind Gust (GST): 23.3 kts
5-day plot - Wave Height Wave Height (WVHT): 6.2 ft
5-day plot - Average Wave Period Average Period (APD): 5.5 sec
5-day plot - Mean Wave Direction Mean Wave Direction (MWD):ESE ( 103 deg true )
5-day plot - Atmospheric Pressure Atmospheric Pressure (PRES):30.14 in
5-day plot - Air Temperature Air Temperature (ATMP): 77.0 °F
5-day plot - Water Temperature Water Temperature (WTMP): 77.7 °F
5-day plot - Dew Point Dew Point (DEWP): 71.2 °F
5-day plot - Wind Speed at 10 Meters Wind Speed at 10 meters (WSPD10M): 19.4 kts
5-day plot - Wind Speed at 20 Meters Wind Speed at 20 meters (WSPD20M): 21.4 kts
5-day plot -  Wind Speed, Wind Gust and Atmospheric Pressure Combined plot of Wind Speed, Gust, and Air Pressure
Supplemental Measurements
Highest 1-minute Wind Speed
Time (HAST)5-day plot - 1-Minute Wind Speed WSPD 5-day plot - 1-Minute Wind Direction WDIR
9:07 pm 19.4 kts-
Previous observations
TIME
(HAST)
5-day plot - Wind Direction
WDIR
 
5-day plot - Wind Speed
WSPD
kts
5-day plot - Wind Gust
GST
kts
5-day plot - Wave Height
WVHT
ft
5-day plot - Dominant Wave Period
DPD
sec
5-day plot - Average Wave Period
APD
sec
5-day plot - Mean Wave Direction
MWD
 
5-day plot - Atmospheric Pressure
PRES
in
5-day plot - Pressure Tendency
PTDY
in
5-day plot - Air Temperature
ATMP
°F
5-day plot - Water Temperature
WTMP
°F
5-day plot - Dew Point
DEWP
°F
5-day plot - Salinity
SAL
psu
5-day plot - Visibility
VIS
nmi
5-day plot - Tide (above MLLW)
TIDE
ft
2024-06-20 09:00 pmENE 17.5 23.3----30.13+0.03 77.0 77.7 71.2---
2024-06-20 08:50 pmENE 17.5 21.4 5.9 85.5 E30.13- 77.2 77.7 71.2---
2024-06-20 08:40 pmENE 17.5 21.4 5.9-5.5 E30.13- 77.2 77.7 71.1---
2024-06-20 08:30 pmENE 19.4 21.4----30.13- 77.0 77.7 70.9---
2024-06-20 08:20 pmENE 17.5 21.4 6.2 85.8 E30.13- 77.0 77.7 71.4---
2024-06-20 08:10 pmENE 17.5 23.3 6.2-5.8 E30.13- 76.8 77.7 72.1---
2024-06-20 08:00 pmENE 15.5 19.4----30.13+0.02 76.5 77.7 72.3---
2024-06-20 07:50 pmENE 15.5 19.4 6.6 85.8 E30.12- 76.5 77.7 72.0---
2024-06-20 07:40 pmENE 13.6 19.4 6.6-5.8 E30.13- 76.6 77.7 72.0---
2024-06-20 07:30 pmENE 15.5 19.4----30.12- 76.6 77.7 71.6---
2024-06-20 07:20 pmENE 15.5 19.4 6.2 85.7 E30.12- 76.6 77.7 71.4---
2024-06-20 07:10 pmENE 15.5 19.4----30.11- 76.6 77.7 71.4---
2024-06-20 07:00 pmENE 15.5 19.4----30.12+0.00 76.5 77.7 71.2---
2024-06-20 06:50 pmENE 17.5 19.4 6.2 85.6 E30.11- 76.5 77.7 70.7---
2024-06-20 06:40 pmENE 15.5 21.4----30.11- 76.5 77.7 70.7---
2024-06-20 06:30 pmENE 15.5 19.4----30.11- 76.6 77.7 71.2---
2024-06-20 06:20 pmENE 15.5 19.4 6.6 85.9ESE30.11- 76.8 77.7 70.9---
2024-06-20 06:10 pmENE 15.5 19.4 6.6-5.9ESE30.10- 77.2 77.7 71.2---
2024-06-20 06:00 pmENE 15.5 19.4----30.10-0.01 77.2 77.7 70.2---
2024-06-20 05:50 pmENE 15.5 19.4 7.2 86.0 E30.10- 77.0 77.7 70.5---
2024-06-20 05:40 pmENE 15.5 17.5----30.11- 77.0 77.7 70.9---
2024-06-20 05:30 pmENE 15.5 19.4----30.11- 76.8 77.7 70.5---
2024-06-20 05:20 pmENE 15.5 19.4 7.2 86.0 E30.10- 77.2 77.7 70.9---
2024-06-20 05:10 pm E 13.6 19.4 7.2-6.0 E30.11- 77.2 77.7 70.5---
2024-06-20 05:00 pmENE 13.6 17.5----30.11-0.01 76.5 77.7 70.2---
2024-06-20 04:50 pmENE 11.7 15.5 6.9 86.0 E30.11- 76.5 77.7 71.6---
2024-06-20 04:40 pmENE 11.7 17.5----30.11- 76.3 77.7 70.7---
2024-06-20 04:30 pmENE 13.6 17.5----30.11- 76.1 77.7 69.8---
2024-06-20 04:20 pmENE 11.7 15.5 7.5 85.9 E30.11- 75.9 77.7 70.2---
2024-06-20 04:10 pmENE 11.7 15.5 7.5-5.9 E30.11- 75.7 77.7 70.2---
2024-06-20 04:00 pmENE 13.6 17.5----30.11-0.01 75.4 77.7 70.2---
2024-06-20 03:50 pm E 13.6 19.4 6.9 85.9ESE30.11- 74.8 77.7 70.5---
2024-06-20 03:40 pm E 17.5 23.3 6.9-5.9ESE30.12- 74.7 77.7 70.7---
2024-06-20 03:30 pm E 19.4 23.3----30.11- 74.3 77.7 71.2---
2024-06-20 03:20 pmENE 19.4 25.3 7.5 86.0ESE30.11- 74.8 77.7 71.2---
2024-06-20 03:10 pmENE 17.5 25.3 7.5-6.0ESE30.11- 76.6 77.7 71.1---
2024-06-20 03:00 pmENE 15.5 19.4----30.11-0.03 76.8 77.7 70.7---
2024-06-20 02:50 pmENE 15.5 19.4 6.6 85.9ESE30.11- 77.0 77.7 70.9---
2024-06-20 02:40 pmENE 13.6 17.5----30.11- 76.8 77.7 70.7---
2024-06-20 02:30 pmENE 13.6 17.5----30.11- 76.8 77.7 70.9---
2024-06-20 02:20 pm E 13.6 17.5 7.2 86.1ESE30.12- 77.0 77.7 71.1---
2024-06-20 02:10 pm E 15.5 19.4 7.2-6.1ESE30.12- 76.8 77.7 70.9---
2024-06-20 02:00 pm E 13.6 17.5----30.12-0.03 77.2 77.7 71.2---
2024-06-20 01:50 pm E 13.6 17.5 6.6 86.0 E30.12- 77.4 77.7 70.9---
2024-06-20 01:40 pm E 13.6 17.5----30.12- 77.4 77.7 70.7---
2024-06-20 01:20 pm E 13.6 17.5 6.6 85.8 E30.12- 77.2 77.7 70.0---
2024-06-20 01:10 pm E 13.6 17.5----30.12- 77.2 77.7 69.8---
2024-06-20 01:00 pm E 13.6 15.5----30.13-0.02 77.2 77.7 69.3---
2024-06-20 12:50 pm E 13.6 17.5 6.9 85.9 E30.13- 77.2 77.7 69.3---
2024-06-20 12:40 pm E 13.6 17.5----30.13- 76.8 77.7 70.0---
2024-06-20 12:30 pm E 11.7 15.5----30.14- 76.8 77.7 70.2---
2024-06-20 12:20 pm E 11.7 15.5 6.2 85.9ESE30.14- 76.8 77.7 70.2---
2024-06-20 12:10 pm E 11.7 15.5 6.2-5.9ESE30.14- 76.8 77.7 69.8---
2024-06-20 12:00 pm E 11.7 17.5----30.14-0.01 76.8 77.7 70.0---
2024-06-20 11:50 am E 13.6 15.5 5.9 85.8ESE30.14- 76.8 77.7 69.6---
2024-06-20 11:40 am E 13.6 17.5----30.14- 76.8 77.7 69.6---
2024-06-20 11:30 am E 13.6 17.5----30.14- 76.8 77.7 69.3---
2024-06-20 11:20 am E 13.6 17.5 5.6 85.7ESE30.15- 76.8 77.7 69.3---
2024-06-20 11:10 am E 13.6 17.5 5.6-5.7ESE30.15- 77.0 77.7 69.3---
2024-06-20 11:00 am E 13.6 19.4----30.15+0.00 76.8 77.7 68.9---
2024-06-20 10:50 am E 13.6 17.5 7.2 86.1 E30.15- 76.5 77.7 69.6---
2024-06-20 10:40 am E 11.7 15.5 7.2-6.1 E30.15- 76.5 77.7 69.8---
2024-06-20 10:30 am E 11.7 13.6----30.15- 76.1 77.7 69.3---
2024-06-20 10:20 am E 11.7 15.5 6.6 85.8 E30.15- 75.9 77.7 69.4---
2024-06-20 10:10 amESE 13.6 17.5 6.6-5.8 E30.15- 75.9 77.7 69.4---
2024-06-20 10:00 amESE 15.5 19.4----30.15+0.01 75.6 77.7 69.6---
2024-06-20 09:50 am E 17.5 23.3 6.2 85.7 E30.15- 74.8 77.7 70.7---
2024-06-20 09:40 am E 17.5 23.3----30.16- 75.4 77.7 70.7---
2024-06-20 09:30 am E 15.5 21.4----30.15- 76.6 77.7 70.5---
2024-06-20 09:20 am E 13.6 17.5 6.2 85.8ESE30.16- 76.8 77.7 70.3---
2024-06-20 09:10 am E 15.5 17.5 6.2-5.8ESE30.16- 76.8 77.7 70.2---
2024-06-20 09:00 amENE 13.6 17.5----30.15+0.02 76.6 77.7 70.0---
2024-06-20 08:50 amENE 13.6 17.5 6.6 85.9ESE30.15- 76.6 77.7 70.2---
2024-06-20 08:40 am E 13.6 17.5----30.15- 77.0 77.7 69.6---
2024-06-20 08:30 am E 13.6 17.5----30.15- 76.8 77.7 69.8---
2024-06-20 08:20 am E 13.6 17.5 6.2 85.8 E30.16- 77.2 77.7 71.1---
2024-06-20 08:10 am E 13.6 17.5 6.2-5.8 E30.16- 77.4 77.7 68.7---
2024-06-20 08:00 am E 13.6 19.4----30.15+0.04 77.5 77.7 69.1---
2024-06-20 07:50 am E 15.5 17.5 6.2 85.8 E30.15- 77.5 77.7 68.5---
2024-06-20 07:40 am E 15.5 19.4----30.15- 77.4 77.7 68.9---
2024-06-20 07:30 am E 13.6 17.5----30.15- 77.0 77.7 68.9---
2024-06-20 07:20 am E 13.6 17.5 6.2 85.7 E30.14- 76.3 77.7 70.7---
2024-06-20 07:10 amENE 13.6 15.5 6.2-5.7 E30.15- 76.3 77.7 71.8---
2024-06-20 07:00 amENE 13.6 17.5----30.14+0.03 76.1 77.7 71.8---
2024-06-20 06:50 amENE 13.6 15.5 6.2 85.9 E30.14- 75.9 77.7 71.4---
2024-06-20 06:40 amENE 13.6 17.5----30.13- 75.9 77.7 71.2---
2024-06-20 06:30 amENE 15.5 19.4----30.13- 75.7 77.7 70.9---
2024-06-20 06:20 am E 11.7 15.5 6.9 86.1 E30.13- 75.7 77.7 70.3---
2024-06-20 06:10 am E 11.7 15.5 6.9-6.1 E30.13- 75.9 77.7 70.3---
2024-06-20 06:00 am E 13.6 17.5----30.13+0.01 75.6 77.7 69.8---
2024-06-20 05:50 am E 11.7 15.5 6.9 85.8 E30.13- 74.8 77.7 70.0---
2024-06-20 05:40 amESE 11.7 15.5----30.12- 74.1 77.7 70.2---
2024-06-20 05:30 am E 15.5 21.4----30.12- 73.6 77.7 69.1---
2024-06-20 05:20 amENE 19.4 23.3 6.6 85.7 E30.11- 75.0 77.7 68.9---
2024-06-20 05:10 amENE 13.6 17.5 6.6-5.7 E30.11- 76.1 77.7 69.6---
2024-06-20 05:00 am E 13.6 17.5----30.11-0.02 75.6 77.7 69.8---
2024-06-20 04:50 amENE 15.5 19.4 6.9 85.9 E30.11- 75.7 77.7 70.3---
2024-06-20 04:40 am E 11.7 15.5----30.11- 75.9 77.7 70.7---
2024-06-20 04:30 am E 11.7 15.5----30.11- 75.7 77.7 70.5---
2024-06-20 04:20 am E 13.6 17.5 6.6 85.6 E30.11- 75.6 77.7 70.0---
2024-06-20 04:10 amENE 13.6 17.5 6.6-5.6 E30.11- 75.6 77.7 69.1---
2024-06-20 04:00 am E 13.6 17.5----30.11-0.03 75.7 77.7 68.4---
2024-06-20 03:50 am E 11.7 17.5 6.9 85.9 E30.11- 74.1 77.7 68.0---
2024-06-20 03:40 am E 15.5 25.3----30.11- 75.0 77.7 69.8---
2024-06-20 03:30 am E 15.5 19.4----30.12- 76.3 77.7 70.7---
2024-06-20 03:20 am E 15.5 19.4 7.2 85.8 E30.11- 76.1 77.7 70.0---
2024-06-20 03:10 amENE 15.5 19.4 7.2-5.8 E30.12- 76.1 77.7 69.8---
2024-06-20 03:00 am E 13.6 19.4----30.12-0.04 76.6 77.7 69.6---
2024-06-20 02:50 am E 15.5 19.4 7.2 85.8 E30.12- 76.6 77.7 69.1---
2024-06-20 02:40 am E 15.5 19.4----30.12- 76.5 77.7 69.4---
2024-06-20 02:30 am E 15.5 19.4----30.12- 76.3 77.7 69.4---
2024-06-20 02:20 am E 15.5 17.5----30.12- 75.9 77.7 70.0---
2024-06-20 02:10 am E 13.6 17.5----30.13- 75.6 77.9 70.7---
2024-06-20 02:00 amENE 15.5 19.4----30.13-0.03 75.6 77.9 71.2---
2024-06-20 01:50 am E 17.5 19.4 6.2 85.5 E30.13- 75.6 77.9 71.4---
2024-06-20 01:40 am E 17.5 21.4----30.14- 76.1 77.9 72.1---
2024-06-20 01:30 am E 19.4 21.4----30.14- 76.6 77.9 70.7---
2024-06-20 01:20 am E 17.5 21.4 6.2 85.5 E30.14- 76.5 77.9 70.5---
2024-06-20 01:10 am E 17.5 21.4 6.2-5.5 E30.14- 76.6 77.9 70.5---
2024-06-20 01:00 am E 17.5 21.4----30.14-0.01 76.6 77.9 70.7---
2024-06-20 12:50 am E 17.5 23.3 6.6 85.8 E30.14- 76.5 77.9 70.7---
2024-06-20 12:40 am E 17.5 21.4 6.6-5.8 E30.14- 76.1 77.9 70.9---
2024-06-20 12:30 am E 13.6 21.4----30.15- 75.9 77.9 71.2---
2024-06-20 12:20 am E 13.6 17.5 6.6 85.6 E30.15- 75.6 77.9 70.7---
2024-06-20 12:10 am E 13.6 17.5 6.6-5.6 E30.15- 75.2 77.9 70.3---
2024-06-20 12:00 am E 15.5 21.4----30.16+0.03 73.9 77.9 69.8---
2024-06-19 11:50 pm E 19.4 27.2 5.9 65.4 E30.16- 75.0 77.9 70.7---
2024-06-19 11:40 pm E 15.5 19.4----30.16- 75.6 77.9 70.7---
2024-06-19 11:30 pm E 17.5 21.4----30.16- 75.0 77.9 70.5---
2024-06-19 11:20 pmENE 19.4 23.3 6.9 85.7ESE30.16- 75.0 77.9 70.5---
2024-06-19 11:10 pmENE 17.5 23.3 6.9-5.7ESE30.16- 75.6 77.9 70.2---
2024-06-19 11:00 pmENE 17.5 23.3----30.16+0.05 75.7 77.9 69.3---
2024-06-19 10:50 pm E 19.4 25.3 6.2 85.6 E30.16- 74.8 77.9 68.9---
2024-06-19 10:40 pm E 21.4 27.2----30.15- 74.7 77.9 70.2---
2024-06-19 10:30 pm E 23.3 27.2----30.15- 76.1 77.9 71.1---
2024-06-19 10:20 pm E 17.5 27.2 6.2 85.8 E30.16- 77.2 77.9 71.1---
2024-06-19 10:10 pm E 15.5 19.4 6.2-5.8 E30.15- 77.0 77.9 71.1---
2024-06-19 10:00 pm E 15.5 19.4----30.15+0.05 77.0 77.9 71.2---
2024-06-19 09:50 pm E 15.5 19.4 6.6 85.8ESE30.14- 76.5 77.9 71.2---
2024-06-19 09:40 pm E 13.6 17.5 6.6-5.8ESE30.14- 75.6 77.9 71.2---
2024-06-19 09:30 pmENE 15.5 23.3----30.14- 75.9 77.9 71.6---
2024-06-19 09:20 pmENE 13.6 17.5 6.6 85.8ESE30.14- 76.5 77.9 72.0---
2024-06-19 09:10 pmENE 13.6 17.5 6.6-5.8ESE30.14- 76.1 77.9 71.8---
2024-06-19 09:00 pmENE 13.6 17.5----30.13+0.05 75.9 77.9 71.6---
2024-06-19 08:50 pm E 15.5 19.4 5.9 85.7 E30.13- 77.0 77.9 71.1---

Detailed Wave Summary
for 51001 as of
(9:10 pm HAST on 06/20/2024)
0710 GMT on 06/21/2024:

These wave data are displayed in rounded times.

     

Click on the graph icon in the table below to see a time series plot of the last five days of that observation.

5-day plot - Significant Wave Height Significant Wave Height (WVHT): 6.2 ft
5-day plot - Swell Height Swell Height (SwH): 2.3 ft
5-day plot - Swell Period Swell Period (SwP): 10.8 sec
5-day plot - Swell Direction Swell Direction (SwD): SE
5-day plot - Wind Wave Height Wind Wave Height (WWH): 5.6 ft
5-day plot - Wind Wave Period Wind Wave Period (WWP): 8.3 sec
5-day plot - Wind Wave Direction Wind Wave Direction (WWD):ESE
5-day plot - Wave Steepness Wave Steepness (STEEPNESS): AVERAGE
5-day plot - Average Wave Period Average Wave Period (APD): 5.5 sec
Previous observations
TIME
(HAST)
5-day plot - Wave Height
WVHT
ft
5-day plot - Swell Height
SwH
ft
5-day plot - Swell Period
SwP
sec
5-day plot - Swell Direction
SwD
 
5-day plot - Wind Wave Height
WWH
ft
5-day plot - Wind Wave Period
WWP
sec
5-day plot - Wind Wave Direction
WWD
 
5-day plot - Wave Steepness
STEEPNESS
 
5-day plot - Average Wave Period
APD
sec
2024-06-20 08:40 pm 5.9 2.0 14.8 SE 5.6 8.3 E AVERAGE 5.5
2024-06-20 08:10 pm 6.2 2.0 13.8 N 5.9 8.3 E AVERAGE 5.8
2024-06-20 07:40 pm 6.6 4.3 7.7 E 4.9 6.2 E STEEP 5.8
2024-06-20 07:10 pm 6.2 3.6 8.3 E 5.2 6.2 E AVERAGE 5.7
2024-06-20 06:40 pm 6.2 3.0 12.9 S 5.6 7.7 E STEEP 5.6
2024-06-20 06:10 pm 6.6 3.6 8.3ESE 5.6 6.2 ENE AVERAGE 5.9
2024-06-20 05:40 pm 7.2 4.9 8.3 E 5.2 5.9 E STEEP 6.0
2024-06-20 05:10 pm 7.2 4.9 8.3 E 5.2 5.6 E STEEP 6.0
2024-06-20 04:40 pm 6.9 5.6 8.3 E 3.9 5.9 E AVERAGE 6.0
2024-06-20 04:10 pm 7.5 6.2 7.7 E 3.9 5.6 E STEEP 5.9
2024-06-20 03:40 pm 6.9 2.0 12.9 S 6.6 8.3 ESE AVERAGE 5.9
2024-06-20 03:10 pm 7.5 2.6 12.9 E 7.2 8.3 ESE STEEP 6.0
2024-06-20 02:40 pm 6.6 4.3 8.3ESE 4.9 5.9 ESE AVERAGE 5.9
2024-06-20 02:10 pm 7.2 3.9 8.3ESE 5.9 6.7 E STEEP 6.1
2024-06-20 01:40 pm 6.6 4.9 8.3 E 4.3 6.2 E AVERAGE 6.0
2024-06-20 01:10 pm 6.6 4.6 8.3 E 4.6 6.2 E AVERAGE 5.8
2024-06-20 12:40 pm 6.9 5.2 8.3 E 4.6 5.6 E AVERAGE 5.9
2024-06-20 12:10 pm 6.2 4.9 8.3ESE 3.9 6.2 E AVERAGE 5.9
2024-06-20 11:40 am 5.9 4.6 8.3ESE 3.9 5.6 E AVERAGE 5.8
2024-06-20 11:10 am 5.6 3.9 8.3ESE 3.9 6.2 E AVERAGE 5.7
2024-06-20 10:40 am 7.2 6.2 7.7 E 3.9 5.9 E STEEP 6.1
2024-06-20 10:10 am 6.6 4.6 8.3 E 4.6 6.2 E AVERAGE 5.8
2024-06-20 09:40 am 6.2 2.0 11.4 SE 5.9 8.3 E AVERAGE 5.7
2024-06-20 09:10 am 6.2 3.9 7.7ESE 4.6 6.7 E STEEP 5.8
2024-06-20 08:40 am 6.6 4.6 7.7ESE 4.6 5.9 E STEEP 5.9
2024-06-20 08:10 am 6.2 4.3 8.3 E 4.6 5.6 E AVERAGE 5.8
2024-06-20 07:40 am 6.2 3.9 7.7 E 4.9 6.7 E STEEP 5.8
2024-06-20 07:10 am 6.2 4.6 7.7 E 3.9 4.3 E STEEP 5.7
2024-06-20 06:40 am 6.2 4.9 7.7 E 4.3 5.9 E STEEP 5.9
2024-06-20 06:10 am 6.9 5.9 8.3 E 3.9 4.5 E AVERAGE 6.1
2024-06-20 05:40 am 6.9 5.6 7.7 E 3.9 5.9 E STEEP 5.8
2024-06-20 05:10 am 6.6 4.3 7.7 E 4.6 6.7 E STEEP 5.7
2024-06-20 04:40 am 6.9 5.9 8.3 E 3.6 5.0 E AVERAGE 5.9
2024-06-20 04:10 am 6.6 4.3 7.7 E 4.9 6.7 E STEEP 5.6
2024-06-20 03:40 am 6.9 3.6 8.3 E 5.9 6.7 E AVERAGE 5.9
2024-06-20 03:10 am 7.2 3.9 8.3 E 5.9 5.9 E AVERAGE 5.8
2024-06-20 02:40 am 7.2 3.6 8.3 E 6.2 5.9 E STEEP 5.8
2024-06-20 01:40 am 6.2 2.3 13.8ENE 5.9 7.7 E STEEP 5.5
2024-06-20 01:10 am 6.2 2.0 12.9ESE 5.9 8.3 E AVERAGE 5.5
2024-06-20 12:40 am 6.6 2.3 12.1 SE 6.2 7.7 E STEEP 5.8
2024-06-20 12:10 am 6.6 3.6 8.3 E 5.2 5.9 E AVERAGE 5.6
2024-06-19 11:40 pm 5.9 2.6 8.3 E 5.2 6.2 EVERY_STEEP 5.4
2024-06-19 11:10 pm 6.9 2.6 12.9ESE 6.6 8.3 ESE AVERAGE 5.7
2024-06-19 10:40 pm 6.2 2.0 10.8 S 5.9 8.3 E AVERAGE 5.6
2024-06-19 10:10 pm 6.2 3.3 11.4 S 5.6 7.7 E STEEP 5.8
2024-06-19 09:40 pm 6.6 4.3 7.7ESE 4.9 6.2 ENE STEEP 5.8
2024-06-19 09:10 pm 6.6 4.6 8.3ESE 4.6 6.7 E AVERAGE 5.8

Plot of wave energy versus frequency (and period)